Waarnemingen

Advertentie
Mijn weer
Terschelling/Hoorn, Nederland (6251): temperatuur & dauwpunt: 17.07.2017 10:00:00 - 23.07.2017 10:00:00 (CEST)Terschelling/Hoorn, Nederland (6251): temperatuur 5cm: 17.07.2017 10:00:00 - 23.07.2017 10:00:00 (CEST)Terschelling/Hoorn, Nederland (6251): windsnelheid & windstoten: 17.07.2017 10:00:00 - 23.07.2017 10:00:00 (CEST)Terschelling/Hoorn, Nederland (6251): windrichting: 17.07.2017 10:00:00 - 23.07.2017 10:00:00 (CEST)Terschelling/Hoorn, Nederland (6251): luchtdruk: 17.07.2017 10:00:00 - 23.07.2017 10:00:00 (CEST)Terschelling/Hoorn, Nederland (6251): zicht: 17.07.2017 10:00:00 - 23.07.2017 10:00:00 (CEST)Terschelling/Hoorn, Nederland (6251): neerslag: 17.07.2017 10:00:00 - 23.07.2017 10:00:00 (CEST)
Datum & Tijd tt [°C] td [°C] tt 5cm [°C] ff [km/u] ff [kn] fx [km/u] fx [kn] dd ppp [hPa] vv [km] rr [mm]
23.07.2017 10:00:00 18,3 13,5 18,5 22 12 32 18 ZW 1010,2 36 0,0
23.07.2017 09:00:00 17,2 13,2 17,3 22 12 29 16 WZW 1010,1 42 0,0
23.07.2017 08:00:00 16,2 13,7 15,8 14 8 22 12 W 1010,0 39 0,0
23.07.2017 07:00:00 15,9 14,3 15,7 14 8 22 12 WZW 1009,7 25 0,0
23.07.2017 06:00:00 15,4 14,4 15,0 14 8 18 10 WZW 1009,6 26 0,0
23.07.2017 05:00:00 16,6 15,4 15,8 7 4 18 10 Z 1009,4 28 0,0
23.07.2017 04:00:00 17,2 15,2 16,5 14 8 22 12 Z 1009,8 43 0,0
23.07.2017 03:00:00 17,0 16,2 16,7 11 6 36 19 ZZO 1009,8 16 2,0
23.07.2017 02:00:00 17,8 16,3 17,4 25 14 32 18 ZO 1010,6 8 2,2
23.07.2017 01:00:00 19,0 16,2 17,8 14 8 22 12 OZO 1010,7 29 0,0
23.07.2017 00:00:00 18,0 16,2 17,0 14 8 22 12 ONO 1011,0 22 0,0
22.07.2017 23:00:00 16,8 15,9 15,9 11 6 18 10 NO 1011,1 16 0,0
22.07.2017 22:00:00 17,0 15,4 16,2 11 6 14 8 NO 1011,1 27 0,0
22.07.2017 21:00:00 17,7 15,8 17,4 7 4 11 6 N 1011,1 30 0,0
22.07.2017 20:00:00 17,8 16,0 17,6 11 6 22 12 WNW 1011,3 23 0,1
22.07.2017 19:00:00 19,1 15,5 19,3 14 8 29 16 WNW 1011,1 29 0,0
22.07.2017 18:00:00 19,8 15,0 20,2 18 10 29 16 W 1011,4 30 0,0
22.07.2017 17:00:00 21,5 15,6 22,9 22 12 32 18 W 1011,0 30 0,0
22.07.2017 16:00:00 23,6 14,7 26,2 22 12 29 16 W 1011,0 31 0,0
22.07.2017 15:00:00 24,7 16,0 26,8 11 6 22 12 Z 1011,1 34 0,0
22.07.2017 14:00:00 24,2 17,6 25,7 18 10 22 12 O 1010,8 29 0,0
22.07.2017 13:00:00 23,5 16,9 26,0 14 8 18 10 O 1010,6 26 0,0
22.07.2017 12:00:00 23,0 17,2 23,2 11 6 18 10 OZO 1010,9 25 0,0
22.07.2017 11:00:00 21,5 17,3 21,9 14 8 29 16 ZO 1010,8 30 0,0
22.07.2017 10:00:00 19,6 16,1 19,7 22 12 36 19 ZO 1010,8 31 0,0
22.07.2017 09:00:00 17,9 14,8 17,6 25 14 36 19 ZO 1010,7 33 0,0
22.07.2017 08:00:00 17,5 13,7 17,4 29 16 36 19 ZO 1010,5 44 0,0
22.07.2017 07:00:00 16,6 12,9 16,0 25 14 40 21 O 1010,2 42 0,0
22.07.2017 06:00:00 16,2 12,3 15,5 29 16 40 21 O 1010,0 47 0,0
22.07.2017 05:00:00 16,3 12,0 15,7 32 18 40 21 O 1010,2 48 0,0
22.07.2017 04:00:00 16,7 12,3 16,3 32 18 43 23 O 1010,8 26 0,0
22.07.2017 03:00:00 17,1 12,3 16,7 36 19 47 25 O 1011,5 45 0,0
22.07.2017 02:00:00 17,5 12,9 17,0 36 19 47 25 O 1011,7 46 0,0
22.07.2017 01:00:00 17,8 13,8 17,0 36 19 43 23 O 1011,9 47 0,0
22.07.2017 00:00:00 18,3 14,0 17,4 29 16 36 19 O 1011,9 38 0,0
21.07.2017 23:00:00 18,0 13,0 16,2 18 10 22 12 OZO 1012,2 41 0,0
21.07.2017 22:00:00 15,3 13,2 12,9 7 4 7 4 NO 1012,4 25 0,0
21.07.2017 21:00:00 18,5 14,6 18,1 4 2 11 6 O 1012,5 26 0,0
21.07.2017 20:00:00 19,5 13,7 20,0 11 6 14 8 NNO 1012,6 26 0,0
21.07.2017 19:00:00 19,3 14,0 20,1 14 8 18 10 NO 1012,9 31 0,0
21.07.2017 18:00:00 20,1 13,9 21,3 14 8 25 14 NO 1013,2 28 0,0
21.07.2017 17:00:00 20,9 12,0 21,1 4 2 18 10 ZZO 1013,4 33 0,0
21.07.2017 16:00:00 21,3 12,0 23,7 11 6 25 14 ZZW 1013,7 26 0,0
21.07.2017 15:00:00 20,0 12,1 21,0 11 6 22 12 ZZW 1014,1 29 0,0
21.07.2017 14:00:00 19,5 12,2 20,5 14 8 22 12 Z 1014,2 33 0,0
21.07.2017 13:00:00 20,3 13,4 23,1 14 8 22 12 Z 1014,2 25 0,0
21.07.2017 12:00:00 20,1 12,5 22,5 14 8 22 12 Z 1014,2 31 0,0
21.07.2017 11:00:00 19,8 14,3 21,6 14 8 22 12 Z 1014,0 29 0,0
21.07.2017 10:00:00 18,8 15,4 20,2 18 10 25 14 Z 1013,9 21 0,0
21.07.2017 09:00:00 17,4 15,4 17,3 18 10 29 16 ZZO 1013,7 19 0,0
21.07.2017 08:00:00 16,5 13,7 15,8 22 12 25 14 ZO 1013,2 32 0,0
21.07.2017 07:00:00 16,4 13,0 15,5 14 8 18 10 ZO 1013,1 38 0,0
21.07.2017 06:00:00 15,3 12,3 12,9 14 8 18 10 Z 1013,0 44 0,0
21.07.2017 05:00:00 12,6 11,3 9,1 7 4 11 6 ZW 1012,6 29 0,0
21.07.2017 04:00:00 11,6 10,5 7,5 7 4 11 6 W 1012,4 33 0,0
21.07.2017 03:00:00 10,5 9,6 9,0 11 6 14 8 W 1012,5 41 0,0
21.07.2017 02:00:00 11,5 10,5 9,7 7 4 18 10 WZW 1012,1 39 0,0
21.07.2017 01:00:00 13,6 11,5 12,8 14 8 25 14 W 1011,9 45 0,0
21.07.2017 00:00:00 14,9 13,1 14,0 22 12 29 16 WZW 1011,4 36 0,0
20.07.2017 23:00:00 15,3 14,5 15,0 18 10 36 19 W 1010,8 30 0,1
20.07.2017 22:00:00 16,0 14,4 15,8 29 16 43 23 W 1010,1 7 0,0
20.07.2017 21:00:00 17,3 15,5 17,3 29 16 50 27 W 1008,6 18 0,0
20.07.2017 20:00:00 19,7 17,3 19,1 29 16 40 21 ZW 1007,4 19 0,0
20.07.2017 19:00:00 20,4 17,2 20,3 25 14 36 19 ZW 1007,2 27 0,0
20.07.2017 18:00:00 21,4 18,0 20,9 22 12 40 21 WZW 1006,7 21 0,0
20.07.2017 17:00:00 20,9 17,4 21,1 25 14 36 19 WZW 1007,2 21 0,0
20.07.2017 16:00:00 19,6 18,1 19,7 22 12 32 18 WZW 1007,0 15 0,0
20.07.2017 15:00:00 20,0 19,0 19,6 14 8 25 14 ZW 1006,8 15 2,3
20.07.2017 14:00:00 19,9 18,7 20,0 14 8 29 16 WZW 1006,7 7 0,2
20.07.2017 13:00:00 21,5 18,2 21,8 18 10 29 16 ZW 1006,7 19 0,0
20.07.2017 12:00:00 19,7 18,0 19,7 18 10 29 16 WZW 1006,6 13 0,1
20.07.2017 11:00:00 20,4 18,7 20,5 14 8 25 14 ZW 1006,7 11 0,0
20.07.2017 10:00:00 20,0 18,5 19,8 22 12 29 16 ZZW 1006,7 12 0,0
20.07.2017 09:00:00 20,3 18,8 20,5 18 10 25 14 ZZW 1006,5 12 0,0
20.07.2017 08:00:00 19,9 18,9 19,6 18 10 25 14 ZZW 1006,3 9 0,0
20.07.2017 07:00:00 19,6 18,6 19,3 18 10 22 12 Z 1006,4 12 0,0
20.07.2017 06:00:00 19,1 18,0 18,5 11 6 22 12 Z 1006,0 15 0,0
20.07.2017 05:00:00 19,7 18,9 19,2 14 8 22 12 Z 1006,5 9 0,0
20.07.2017 04:00:00 19,7 18,7 19,2 14 8 22 12 ZZW 1006,6 10 0,0
20.07.2017 03:00:00 19,1 18,5 18,7 11 6 43 23 ZW 1006,5 6 2,0
20.07.2017 02:00:00 21,1 19,2 20,7 14 8 18 10 Z 1007,3 9 0,0
20.07.2017 01:00:00 21,1 19,5 20,3 11 6 14 8 Z 1007,4 12 0,0
20.07.2017 00:00:00 20,5 19,1 19,6 11 6 11 6 Z 1007,4 12 0,0
19.07.2017 23:00:00 20,5 18,8 20,2 0 0 7 4 N 1007,3 11 0,0
19.07.2017 22:00:00 21,6 18,7 21,4 4 2 14 8 W 1007,6 14 0,0
19.07.2017 21:00:00 23,0 18,5 22,8 11 6 22 12 W 1007,2 18 0,0
19.07.2017 20:00:00 23,9 19,0 24,4 7 4 18 10 ZZW 1006,9 26 0,0
19.07.2017 19:00:00 24,6 19,2 24,8 14 8 22 12 Z 1006,9 21 0,0
19.07.2017 18:00:00 26,4 20,5 27,6 14 8 22 12 ZZO 1006,8 19 0,0
19.07.2017 17:00:00 26,7 20,4 28,1 18 10 29 16 ZZO 1007,3 28 0,0
19.07.2017 16:00:00 26,5 19,9 27,5 18 10 29 16 ZZO 1007,3 31 0,0
19.07.2017 15:00:00 26,6 20,0 29,1 22 12 40 21 ZO 1008,0 23 0,0
19.07.2017 14:00:00 26,3 19,7 27,0 29 16 40 21 O 1008,0 37 0,0
19.07.2017 13:00:00 25,2 19,5 25,8 29 16 40 21 O 1008,6 34 0,0
19.07.2017 12:00:00 23,9 18,4 25,5 32 18 43 23 O 1009,3 24 0,0
19.07.2017 11:00:00 21,1 16,9 22,6 36 19 47 25 O 1009,7 27 0,0
19.07.2017 10:00:00 19,4 15,9 20,1 29 16 40 21 O 1010,7 29 0,0
19.07.2017 09:00:00 17,6 15,0 17,8 32 18 43 23 O 1011,5 27 0,0
19.07.2017 08:00:00 17,1 14,6 16,9 32 18 43 23 O 1012,1 29 0,0
19.07.2017 07:00:00 17,3 14,7 16,7 36 19 47 25 O 1012,5 26 0,0
19.07.2017 06:00:00 17,8 14,8 16,8 36 19 43 23 O 1013,2 30 0,0
19.07.2017 05:00:00 16,4 15,2 15,8 29 16 36 19 ONO 1013,7 19 0,0
19.07.2017 04:00:00 16,3 15,2 15,7 29 16 40 21 ONO 1014,8 17 0,0
19.07.2017 03:00:00 16,3 15,3 15,8 29 16 40 21 ONO 1015,6 18 0,0
19.07.2017 02:00:00 16,2 15,2 15,6 25 14 - - ONO 1016,2 21 0,0
19.07.2017 01:00:00 16,6 15,3 16,0 29 16 40 21 ONO 1016,4 23 0,0
19.07.2017 00:00:00 16,6 15,4 16,0 25 14 36 19 ONO 1017,0 18 0,0
18.07.2017 23:00:00 16,8 15,3 16,1 25 14 - - ONO 1017,3 23 0,0
18.07.2017 22:00:00 16,4 14,6 15,8 25 14 36 19 ONO 1017,7 22 0,0
18.07.2017 21:00:00 17,0 14,6 16,5 29 16 36 19 ONO 1018,2 27 0,0
18.07.2017 20:00:00 17,8 14,7 17,9 25 14 - - ONO 1018,6 18 0,0
18.07.2017 19:00:00 18,5 14,2 19,2 29 16 40 21 NO 1019,0 27 0,0
18.07.2017 18:00:00 19,3 14,2 20,7 29 16 40 21 ONO 1019,3 23 0,0
18.07.2017 17:00:00 20,2 14,3 22,0 25 14 - - NO 1019,7 19 0,0
18.07.2017 16:00:00 20,3 14,1 22,8 25 14 32 18 NO 1020,3 30 0,0
18.07.2017 15:00:00 20,4 13,9 23,3 22 12 32 18 O 1020,9 16 0,0
18.07.2017 14:00:00 20,2 14,1 23,1 22 12 - - O 1021,5 28 0,0
18.07.2017 13:00:00 19,5 13,5 22,3 22 12 29 16 O 1022,1 40 0,0
18.07.2017 12:00:00 18,1 12,7 19,7 22 12 29 16 O 1022,6 26 0,0
18.07.2017 11:00:00 18,6 13,3 19,4 18 10 25 14 O 1022,8 25 0,0
18.07.2017 10:00:00 17,5 13,0 19,5 14 8 22 12 O 1023,0 30 0,0
18.07.2017 09:00:00 16,9 12,8 17,5 11 6 18 10 OZO 1023,0 28 0,0
18.07.2017 08:00:00 16,0 12,9 16,1 14 8 18 10 OZO 1022,8 30 0,0
18.07.2017 07:00:00 15,3 13,1 13,7 11 6 14 8 OZO 1022,9 24 0,0
18.07.2017 06:00:00 11,1 10,7 9,1 7 4 11 6 NO 1023,0 19 0,0
18.07.2017 05:00:00 11,4 11,1 8,5 7 4 11 6 NO 1022,7 18 0,0
18.07.2017 04:00:00 10,2 9,9 6,2 7 4 7 4 NO 1022,9 18 0,0
18.07.2017 03:00:00 9,9 9,9 6,4 7 4 7 4 NO 1023,2 14 0,0
18.07.2017 02:00:00 9,8 9,7 6,1 4 2 7 4 NNO 1023,3 17 0,0
18.07.2017 01:00:00 10,2 9,9 7,0 7 4 7 4 NNO 1023,2 24 0,0
18.07.2017 00:00:00 10,2 9,2 7,6 0 0 4 2 N 1023,3 27 0,0
17.07.2017 23:00:00 11,4 10,4 8,5 0 0 7 4 N 1023,4 19 0,0
17.07.2017 22:00:00 13,9 10,5 11,9 4 2 11 6 NNW 1023,3 30 0,0
17.07.2017 21:00:00 17,0 11,0 16,2 7 4 14 8 NW 1023,1 25 0,0
17.07.2017 20:00:00 18,0 11,1 18,9 7 4 18 10 WNW 1023,2 37 0,0
17.07.2017 19:00:00 18,8 10,6 20,4 11 6 22 12 WNW 1023,1 30 0,0
17.07.2017 18:00:00 18,8 11,6 21,2 14 8 29 16 NW 1023,3 31 0,0
17.07.2017 17:00:00 19,5 11,0 21,9 14 8 25 14 W 1023,4 28 0,0
17.07.2017 16:00:00 19,7 11,2 22,4 18 10 29 16 WNW 1023,4 31 0,0
17.07.2017 15:00:00 19,8 12,0 22,1 18 10 32 18 WNW 1023,5 35 0,0
17.07.2017 14:00:00 19,8 11,8 22,3 22 12 32 18 W 1023,5 34 0,0
17.07.2017 13:00:00 19,9 12,2 21,4 25 14 32 18 W 1023,4 29 0,0
17.07.2017 12:00:00 19,4 11,6 21,3 18 10 32 18 WNW 1023,4 29 0,0
17.07.2017 11:00:00 19,3 11,5 20,7 18 10 29 16 WNW 1023,5 41 0,0
17.07.2017 10:00:00 18,3 12,4 19,5 18 10 29 16 WNW 1023,4 38 0,0

tt = temperatuur
td = dauwpunt
tt 5cm = temperatuur 5cm
ff = windsnelheid
fx = windstoten
dd = windrichting
ppp = luchtdruk
vv = zicht
rr = neerslag

Weerstations in de omgeving